ONEWEB-0269 (48987 NORAD) Tracking and Keplerian Element Data

This shows tracking and keplerian element data for the satellite.

Feedback or suggestion? Click here.




ElementValue
Catalog48987
NameONEWEB-0269
Epoch Orbit1295
Epoch Day262.16668981
Epoch Year2021
RAAN213.4293
Inclination87.8132
Eccentricity0.0007838
Argument of Perigee17.02
Mean Anonmoly187.7242
Mean Motion13.64722782
Decay Rate1.5E-07
L11 48987U 21060W 21262.16668981 .00000015 00000-0 00000+0 0 9998
L22 48987 87.8132 213.4293 0007838 17.0200 187.7242 13.64722782 12957

Live tracking and technical data element details for ONEWEB-0269 (NORAD 48987). ONEWEB-0269 can be tracked NOW for your location showing map with azimuth and elevation plus other details from your city location.

Track the satellite on the map from your city or location and see movement details for azimuth, elevation, latitude, longitude, range, height, and movement on the map or in text.







IsCatalogInMostPopularTable: catalog: 48987, numindb: 20
Update: records affected: 1



GetName: 48987 ONEWEB-0269

Hit Count: updated at: Fri, 24 Sep 2021 18:14:53 GMT